Tracking 29777 objects as of 5-Oct-2024
HD Live streaming from Space Station
objects crossing your sky now

THORAD AGENA D DEB

Track THORAD AGENA D DEB now!
10-day predictions


NORAD ID: 4749
Int'l Code: 1970-025CX
Perigee: 947.1 km
Apogee: 968.1 km
Inclination: 99.0 °
Period: 104.1 minutes
Semi major axis: 7328 km
RCS: 0.0977 m2 (small)
Launch date: April 8, 1970
Source: United States (US)
Launch site: AIR FORCE WESTERN TEST RANGE (AFWTR)

Note: This is SATELLITE DEBRIS
Your satellite tracking list
Your tracking list is empty




NASA's NSSDC Master Catalog

Two Line Element Set (TLE):
1 04749U 70025CX  24278.57982798  .00005258  00000-0  47788-2 0  9992
2 04749  99.0363 126.1811 0014355 234.1744 125.8078 13.83790325717433
Source of the keplerian elements: AFSPC